Time,TemperatureF,DewpointF,PressureIn,WindDirection,WindDirectionDegrees,WindSpeedMPH,WindSpeedGustMPH,Humidity,HourlyPrecipIn,Conditions,Clouds,dailyrainin,SoftwareType,DateUTC
2013-06-03 00:01:00,68.2,67.9,29.92,North,0,0.0,0.0,99,0.00,RA,,0.00,WeatherDisplay:10.37,2013-06-03 04:01:00,
2013-06-03 00:06:00,68.2,67.9,29.92,North,0,0.0,0.0,99,0.00,RA,,0.00,WeatherDisplay:10.37,2013-06-03 04:06:00,
2013-06-03 00:11:00,68.0,67.7,29.92,North,0,0.0,0.0,99,0.00,CLR,,0.00,WeatherDisplay:10.37,2013-06-03 04:11:00,
2013-06-03 00:16:00,68.0,67.7,29.92,North,0,0.0,0.0,99,0.00,CLR,,0.00,WeatherDisplay:10.37,2013-06-03 04:16:00,
2013-06-03 00:21:00,67.8,67.5,29.92,North,0,0.0,0.0,99,0.00,CLR,,0.00,WeatherDisplay:10.37,2013-06-03 04:21:00,
2013-06-03 00:26:00,67.6,67.3,29.92,North,0,0.0,0.0,99,0.00,CLR,,0.00,WeatherDisplay:10.37,2013-06-03 04:26:00,
2013-06-03 00:31:00,67.6,67.3,29.92,North,0,0.0,0.0,99,0.00,CLR,,0.00,WeatherDisplay:10.37,2013-06-03 04:31:00,
2013-06-03 00:37:00,67.6,67.3,29.92,North,0,0.0,0.0,99,0.00,CLR,,0.00,WeatherDisplay:10.37,2013-06-03 04:37:00,
2013-06-03 00:42:00,67.5,67.2,29.92,North,0,0.0,0.0,99,0.00,CLR,,0.00,WeatherDisplay:10.37,2013-06-03 04:42:00,
2013-06-03 00:47:00,67.5,67.2,29.92,North,0,0.0,0.0,99,0.00,CLR,,0.00,WeatherDisplay:10.37,2013-06-03 04:47:00,
2013-06-03 00:52:00,67.3,67.0,29.92,North,0,0.0,0.0,99,0.00,CLR,,0.00,WeatherDisplay:10.37,2013-06-03 04:52:00,
2013-06-03 00:57:00,67.1,66.8,29.92,SW,225,0.0,0.0,99,0.00,CLR,,0.00,WeatherDisplay:10.37,2013-06-03 04:57:00,
2013-06-03 01:02:00,67.1,66.8,29.92,NW,315,0.0,0.0,99,0.00,CLR,,0.00,WeatherDisplay:10.37,2013-06-03 05:02:00,
2013-06-03 01:07:00,66.9,66.6,29.92,NW,315,0.0,0.0,99,0.00,CLR,,0.00,WeatherDisplay:10.37,2013-06-03 05:07:00,
2013-06-03 01:12:00,66.9,66.6,29.92,NW,315,0.0,0.0,99,0.00,CLR,,0.00,WeatherDisplay:10.37,2013-06-03 05:12:00,
2013-06-03 01:17:00,66.9,66.6,29.92,NW,315,0.0,0.0,99,0.00,CLR,,0.00,WeatherDisplay:10.37,2013-06-03 05:17:00,
2013-06-03 01:22:00,66.7,66.5,29.92,NW,315,0.0,0.0,99,0.00,CLR,,0.00,WeatherDisplay:10.37,2013-06-03 05:22:00,
2013-06-03 01:27:00,66.7,66.5,29.92,NW,315,0.0,0.0,99,0.00,CLR,,0.00,WeatherDisplay:10.37,2013-06-03 05:27:00,
2013-06-03 01:32:00,66.7,66.5,29.92,NW,315,0.0,0.0,99,0.00,CLR,,0.00,WeatherDisplay:10.37,2013-06-03 05:32:00,
2013-06-03 01:37:00,66.7,66.5,29.92,NW,315,0.0,0.0,99,0.00,CLR,,0.00,WeatherDisplay:10.37,2013-06-03 05:37:00,
2013-06-03 01:42:00,66.6,66.3,29.93,NW,315,0.0,0.0,99,0.00,CLR,,0.00,WeatherDisplay:10.37,2013-06-03 05:42:00,
2013-06-03 01:47:00,66.6,66.3,29.92,NW,315,0.0,0.0,99,0.00,CLR,,0.00,WeatherDisplay:10.37,2013-06-03 05:47:00,
2013-06-03 01:52:00,66.6,66.3,29.92,NW,315,0.0,0.0,99,0.00,CLR,,0.00,WeatherDisplay:10.37,2013-06-03 05:52:00,
2013-06-03 01:57:00,66.4,66.1,29.92,NW,315,0.0,0.0,99,0.00,CLR,,0.00,WeatherDisplay:10.37,2013-06-03 05:57:00,
2013-06-03 02:02:00,66.4,66.1,29.93,South,180,0.0,0.0,99,0.00,CLR,,0.00,WeatherDisplay:10.37,2013-06-03 06:02:00,
2013-06-03 02:07:00,66.4,66.1,29.93,South,180,0.0,0.0,99,0.00,CLR,,0.00,WeatherDisplay:10.37,2013-06-03 06:07:00,
2013-06-03 02:12:00,66.2,65.9,29.92,NW,315,0.0,0.0,99,0.00,CLR,,0.00,WeatherDisplay:10.37,2013-06-03 06:12:00,
2013-06-03 02:17:00,66.0,65.7,29.93,NW,315,0.0,0.0,99,0.00,CLR,,0.00,WeatherDisplay:10.37,2013-06-03 06:17:00,
2013-06-03 02:22:00,66.0,65.7,29.93,West,270,0.0,0.0,99,0.00,CLR,,0.00,WeatherDisplay:10.37,2013-06-03 06:22:00,
2013-06-03 02:27:00,66.2,65.9,29.93,SW,225,0.0,0.0,99,0.00,CLR,,0.00,WeatherDisplay:10.37,2013-06-03 06:27:00,
2013-06-03 02:32:00,66.4,66.1,29.93,SW,225,0.0,0.0,99,0.00,CLR,,0.00,WeatherDisplay:10.37,2013-06-03 06:32:00,
2013-06-03 02:37:00,66.4,66.1,29.93,SW,225,0.0,0.0,99,0.00,CLR,,0.00,WeatherDisplay:10.37,2013-06-03 06:37:00,
2013-06-03 02:42:00,66.4,66.1,29.93,SW,225,0.0,0.0,99,0.00,CLR,,0.00,WeatherDisplay:10.37,2013-06-03 06:42:00,
2013-06-03 02:47:00,66.6,66.3,29.93,SW,225,0.0,0.0,99,0.00,CLR,,0.00,WeatherDisplay:10.37,2013-06-03 06:47:00,
2013-06-03 02:52:00,66.6,66.3,29.93,North,0,0.0,0.0,99,0.00,CLR,,0.00,WeatherDisplay:10.37,2013-06-03 06:52:00,
2013-06-03 02:57:00,66.6,66.3,29.93,North,0,0.0,0.0,99,0.00,CLR,,0.00,WeatherDisplay:10.37,2013-06-03 06:57:00,
2013-06-03 03:02:00,66.7,66.5,29.93,North,0,0.0,0.0,99,0.00,CLR,,0.00,WeatherDisplay:10.37,2013-06-03 07:02:00,
2013-06-03 03:07:00,66.7,66.5,29.93,North,0,0.0,0.0,99,0.00,CLR,,0.00,WeatherDisplay:10.37,2013-06-03 07:07:00,
2013-06-03 03:12:00,66.7,66.5,29.93,North,0,0.0,0.0,99,0.00,CLR,,0.00,WeatherDisplay:10.37,2013-06-03 07:12:00,
2013-06-03 03:17:00,66.7,66.5,29.93,North,0,0.0,0.0,99,0.00,CLR,,0.00,WeatherDisplay:10.37,2013-06-03 07:17:00,
2013-06-03 03:22:00,66.6,66.3,29.93,West,270,0.0,0.0,99,0.00,CLR,,0.00,WeatherDisplay:10.37,2013-06-03 07:22:00,
2013-06-03 03:27:00,66.6,66.3,29.93,West,270,0.0,0.0,99,0.00,CLR,,0.00,WeatherDisplay:10.37,2013-06-03 07:27:00,
2013-06-03 03:32:00,66.4,66.1,29.92,West,270,0.0,0.0,99,0.00,CLR,,0.00,WeatherDisplay:10.37,2013-06-03 07:32:00,
2013-06-03 03:37:00,66.4,66.1,29.92,West,270,0.0,0.0,99,0.00,CLR,,0.00,WeatherDisplay:10.37,2013-06-03 07:37:00,
2013-06-03 03:42:00,66.2,65.9,29.92,West,270,0.0,0.0,99,0.00,CLR,,0.00,WeatherDisplay:10.37,2013-06-03 07:42:00,
2013-06-03 03:47:00,66.2,65.9,29.92,West,270,0.0,0.0,99,0.00,CLR,,0.00,WeatherDisplay:10.37,2013-06-03 07:47:00,
2013-06-03 03:52:00,66.0,65.7,29.92,North,0,0.0,0.0,99,0.00,CLR,,0.00,WeatherDisplay:10.37,2013-06-03 07:52:00,
2013-06-03 03:57:00,66.0,65.7,29.92,North,0,0.0,0.0,99,0.00,CLR,,0.00,WeatherDisplay:10.37,2013-06-03 07:57:00,
2013-06-03 04:02:00,65.8,65.6,29.92,North,0,0.0,0.0,99,0.00,CLR,,0.00,WeatherDisplay:10.37,2013-06-03 08:02:00,
2013-06-03 04:07:00,65.8,65.6,29.92,North,0,0.0,0.0,99,0.00,CLR,,0.00,WeatherDisplay:10.37,2013-06-03 08:07:00,
2013-06-03 04:12:00,65.7,65.4,29.92,NW,315,0.0,0.0,99,0.00,CLR,,0.00,WeatherDisplay:10.37,2013-06-03 08:12:00,
2013-06-03 04:17:00,65.5,65.2,29.92,NW,315,0.0,0.0,99,0.00,CLR,,0.00,WeatherDisplay:10.37,2013-06-03 08:17:00,
2013-06-03 04:22:00,65.5,65.2,29.92,NW,315,0.0,0.0,99,0.00,CLR,,0.00,WeatherDisplay:10.37,2013-06-03 08:22:00,
2013-06-03 04:27:00,65.3,65.0,29.92,NW,315,0.0,0.0,99,0.00,CLR,,0.00,WeatherDisplay:10.37,2013-06-03 08:27:00,
2013-06-03 04:32:00,65.3,65.0,29.92,NW,315,0.0,0.0,99,0.00,CLR,,0.00,WeatherDisplay:10.37,2013-06-03 08:32:00,
2013-06-03 04:37:00,65.1,64.8,29.92,NW,315,0.0,0.0,99,0.00,CLR,,0.00,WeatherDisplay:10.37,2013-06-03 08:37:00,
2013-06-03 04:42:00,64.9,64.7,29.92,NW,315,0.0,0.0,99,0.00,CLR,,0.00,WeatherDisplay:10.37,2013-06-03 08:42:00,
2013-06-03 04:47:00,64.9,64.7,29.92,NW,315,0.0,0.0,99,0.00,CLR,,0.00,WeatherDisplay:10.37,2013-06-03 08:47:00,
2013-06-03 04:52:00,64.8,64.5,29.92,NW,315,0.0,0.0,99,0.00,CLR,,0.00,WeatherDisplay:10.37,2013-06-03 08:52:00,
2013-06-03 04:57:00,64.6,64.3,29.93,NW,315,0.0,0.0,99,0.00,CLR,,0.00,WeatherDisplay:10.37,2013-06-03 08:57:00,
2013-06-03 05:02:00,64.6,64.3,29.93,NW,315,0.0,0.0,99,0.00,CLR,,0.00,WeatherDisplay:10.37,2013-06-03 09:02:00,
2013-06-03 05:07:00,64.4,64.1,29.92,NW,315,0.0,0.0,99,0.00,CLR,,0.00,WeatherDisplay:10.37,2013-06-03 09:07:00,
2013-06-03 05:12:00,64.4,64.1,29.92,NW,315,0.0,0.0,99,0.00,CLR,,0.00,WeatherDisplay:10.37,2013-06-03 09:12:00,
2013-06-03 05:17:00,64.4,64.1,29.92,SW,225,0.0,0.0,99,0.00,CLR,,0.00,WeatherDisplay:10.37,2013-06-03 09:17:00,
2013-06-03 05:22:00,64.2,63.4,29.92,SW,225,0.0,0.0,97,0.00,CLR,,0.00,WeatherDisplay:10.37,2013-06-03 09:22:00,
2013-06-03 05:27:00,64.2,63.4,29.92,SW,225,0.0,0.0,97,0.00,CLR,,0.00,WeatherDisplay:10.37,2013-06-03 09:27:00,
2013-06-03 05:32:00,64.2,63.4,29.92,NE,45,0.0,0.0,97,0.00,CLR,,0.00,WeatherDisplay:10.37,2013-06-03 09:32:00,
2013-06-03 05:37:00,64.2,63.4,29.93,NE,45,0.0,0.0,97,0.00,CLR,,0.00,WeatherDisplay:10.37,2013-06-03 09:37:00,
2013-06-03 05:42:00,64.0,63.2,29.93,NE,45,0.0,0.0,97,0.00,CLR,,0.00,WeatherDisplay:10.37,2013-06-03 09:42:00,
2013-06-03 05:47:00,64.0,63.2,29.92,North,0,0.0,0.0,97,0.00,CLR,,0.00,WeatherDisplay:10.37,2013-06-03 09:47:00,
2013-06-03 05:52:00,64.0,63.2,29.92,North,0,0.0,0.0,97,0.00,CLR,,0.00,WeatherDisplay:10.37,2013-06-03 09:52:00,
2013-06-03 05:57:00,64.0,63.2,29.92,North,0,0.0,0.0,97,0.00,CLR,,0.00,WeatherDisplay:10.37,2013-06-03 09:57:00,
2013-06-03 06:02:00,63.9,63.0,29.93,North,0,0.0,0.0,97,0.00,CLR,,0.00,WeatherDisplay:10.37,2013-06-03 10:02:00,
2013-06-03 06:07:00,63.9,63.0,29.93,North,0,0.0,0.0,97,0.00,CLR,,0.00,WeatherDisplay:10.37,2013-06-03 10:07:00,
2013-06-03 06:12:00,63.7,62.8,29.93,SW,225,0.0,0.0,97,0.00,CLR,,0.00,WeatherDisplay:10.37,2013-06-03 10:12:00,
2013-06-03 06:17:00,63.5,62.6,29.94,SW,225,0.0,0.0,97,0.00,CLR,,0.00,WeatherDisplay:10.37,2013-06-03 10:17:00,
2013-06-03 06:22:00,63.5,62.6,29.94,North,0,0.0,0.0,97,0.00,CLR,,0.00,WeatherDisplay:10.37,2013-06-03 10:22:00,
2013-06-03 06:27:00,63.5,62.6,29.94,North,0,0.0,0.0,97,0.00,CLR,,0.00,WeatherDisplay:10.37,2013-06-03 10:27:00,
2013-06-03 06:32:00,63.5,62.6,29.94,North,0,0.0,0.0,97,0.00,CLR,,0.00,WeatherDisplay:10.37,2013-06-03 10:32:00,
2013-06-03 06:37:00,63.7,62.8,29.94,SE,135,0.0,0.0,97,0.00,CLR,,0.00,WeatherDisplay:10.37,2013-06-03 10:37:00,
2013-06-03 06:42:00,63.7,62.8,29.94,SE,135,0.0,0.0,97,0.00,CLR,,0.00,WeatherDisplay:10.37,2013-06-03 10:42:00,
2013-06-03 06:47:00,63.7,62.8,29.95,North,0,0.0,0.0,97,0.00,CLR,,0.00,WeatherDisplay:10.37,2013-06-03 10:47:00,
2013-06-03 06:52:00,63.7,62.8,29.95,South,180,0.0,0.0,97,0.00,CLR,,0.00,WeatherDisplay:10.37,2013-06-03 10:52:00,
2013-06-03 06:57:00,63.7,62.8,29.95,South,180,0.0,0.0,97,0.00,CLR,,0.00,WeatherDisplay:10.37,2013-06-03 10:57:00,
2013-06-03 07:02:00,63.9,63.0,29.95,NW,315,0.0,0.0,97,0.00,CLR,,0.00,WeatherDisplay:10.37,2013-06-03 11:02:00,
2013-06-03 07:07:00,63.9,63.0,29.95,NW,315,0.0,0.0,97,0.00,CLR,,0.00,WeatherDisplay:10.37,2013-06-03 11:07:00,
2013-06-03 07:12:00,64.0,63.2,29.95,NW,315,0.0,0.0,97,0.00,CLR,,0.00,WeatherDisplay:10.37,2013-06-03 11:12:00,
2013-06-03 07:17:00,64.0,63.2,29.95,NW,315,0.0,0.0,97,0.00,CLR,,0.00,WeatherDisplay:10.37,2013-06-03 11:17:00,
2013-06-03 07:22:00,64.0,63.2,29.95,NW,315,0.0,0.0,97,0.00,CLR,,0.00,WeatherDisplay:10.37,2013-06-03 11:22:00,
2013-06-03 07:27:00,64.0,63.2,29.95,NW,315,0.0,0.0,97,0.00,CLR,,0.00,WeatherDisplay:10.37,2013-06-03 11:27:00,
2013-06-03 07:32:00,64.0,63.2,29.95,NW,315,0.0,0.0,97,0.00,CLR,,0.00,WeatherDisplay:10.37,2013-06-03 11:32:00,
2013-06-03 07:37:00,64.2,63.4,29.95,NW,315,0.0,0.0,97,0.00,CLR,,0.00,WeatherDisplay:10.37,2013-06-03 11:37:00,
2013-06-03 07:42:00,64.4,64.1,29.96,NW,315,0.0,0.0,99,0.00,CLR,,0.00,WeatherDisplay:10.37,2013-06-03 11:42:00,
2013-06-03 07:47:00,64.6,64.3,29.95,NW,315,0.0,0.0,99,0.00,CLR,,0.00,WeatherDisplay:10.37,2013-06-03 11:47:00,
2013-06-03 07:52:00,64.9,64.7,29.95,NE,45,0.0,0.0,99,0.00,CLR,,0.00,WeatherDisplay:10.37,2013-06-03 11:52:00,
2013-06-03 07:57:00,65.1,64.8,29.96,SE,135,0.0,0.0,99,0.00,CLR,,0.00,WeatherDisplay:10.37,2013-06-03 11:57:00,
2013-06-03 08:02:00,65.5,65.2,29.96,East,90,0.0,0.0,99,0.00,CLR,,0.00,WeatherDisplay:10.37,2013-06-03 12:02:00,
2013-06-03 08:07:00,65.7,65.4,29.96,NE,45,0.0,0.0,99,0.00,CLR,,0.00,WeatherDisplay:10.37,2013-06-03 12:07:00,
2013-06-03 08:12:00,66.0,65.7,29.96,North,0,0.0,0.0,99,0.00,CLR,,0.00,WeatherDisplay:10.37,2013-06-03 12:12:00,
2013-06-03 08:17:00,66.2,65.9,29.97,East,90,0.0,0.0,99,0.00,CLR,,0.00,WeatherDisplay:10.37,2013-06-03 12:17:00,
2013-06-03 08:22:00,66.2,65.9,29.97,SE,135,0.0,0.0,99,0.00,CLR,,0.00,WeatherDisplay:10.37,2013-06-03 12:22:00,
2013-06-03 08:27:00,66.4,66.1,29.97,SE,135,0.0,0.0,99,0.00,CLR,,0.00,WeatherDisplay:10.37,2013-06-03 12:27:00,
2013-06-03 08:32:00,66.4,66.1,29.97,NE,45,0.0,0.0,99,0.00,CLR,,0.00,WeatherDisplay:10.37,2013-06-03 12:32:00,
2013-06-03 08:37:00,66.6,66.3,29.98,NW,315,2.3,0.0,99,0.00,CLR,,0.00,WeatherDisplay:10.37,2013-06-03 12:37:00,
2013-06-03 08:42:00,66.6,66.3,29.98,NW,315,0.0,0.0,99,0.00,CLR,,0.00,WeatherDisplay:10.37,2013-06-03 12:42:00,
2013-06-03 08:47:00,66.7,66.5,29.98,East,90,0.0,0.0,99,0.00,CLR,,0.00,WeatherDisplay:10.37,2013-06-03 12:47:00,
2013-06-03 08:52:00,66.7,66.5,29.98,SW,225,0.0,0.0,99,0.00,CLR,,0.00,WeatherDisplay:10.37,2013-06-03 12:52:00,
2013-06-03 08:57:00,66.7,66.5,29.98,NE,45,2.3,0.0,99,0.00,CLR,,0.00,WeatherDisplay:10.37,2013-06-03 12:57:00,
2013-06-03 09:02:00,66.9,66.6,29.98,NE,45,2.3,2.3,99,0.00,CLR,,0.00,WeatherDisplay:10.37,2013-06-03 13:02:00,
2013-06-03 09:07:00,67.1,66.8,29.98,North,0,2.3,2.3,99,0.00,CLR,,0.00,WeatherDisplay:10.37,2013-06-03 13:07:00,
2013-06-03 09:12:00,67.6,67.3,29.98,NE,45,0.0,0.0,99,0.00,CLR,,0.00,WeatherDisplay:10.37,2013-06-03 13:12:00,
2013-06-03 09:17:00,67.8,67.5,29.98,SE,135,4.6,0.0,99,0.00,CLR,,0.00,WeatherDisplay:10.37,2013-06-03 13:17:00,
2013-06-03 09:22:00,68.2,67.9,29.99,NE,45,4.6,4.6,99,0.00,CLR,,0.00,WeatherDisplay:10.37,2013-06-03 13:22:00,
2013-06-03 09:27:00,68.4,68.1,29.99,North,0,2.3,0.0,99,0.00,CLR,,0.00,WeatherDisplay:10.37,2013-06-03 13:27:00,
2013-06-03 09:32:00,68.5,68.2,29.99,North,0,2.3,0.0,99,0.00,CLR,,0.00,WeatherDisplay:10.37,2013-06-03 13:32:00,
2013-06-03 09:37:00,68.7,68.4,29.99,SW,225,4.6,0.0,99,0.00,CLR,,0.00,WeatherDisplay:10.37,2013-06-03 13:37:00,
2013-06-03 09:42:00,68.7,68.4,29.99,North,0,0.0,0.0,99,0.00,CLR,,0.00,WeatherDisplay:10.37,2013-06-03 13:42:00,
2013-06-03 09:47:00,69.3,69.0,29.99,South,180,1.1,0.0,99,0.00,CLR,,0.00,WeatherDisplay:10.37,2013-06-03 13:47:00,
2013-06-03 09:52:00,69.6,69.3,29.99,NE,45,0.0,0.0,99,0.00,CLR,,0.00,WeatherDisplay:10.37,2013-06-03 13:52:00,
2013-06-03 09:57:00,69.8,69.2,29.99,North,0,5.8,0.0,98,0.00,CLR,,0.00,WeatherDisplay:10.37,2013-06-03 13:57:00,
2013-06-03 10:02:00,70.2,69.6,29.99,East,90,1.1,0.0,98,0.00,CLR,,0.00,WeatherDisplay:10.37,2013-06-03 14:02:00,
2013-06-03 10:07:00,70.5,69.9,29.99,North,0,1.1,0.0,98,0.00,CLR,,0.00,WeatherDisplay:10.37,2013-06-03 14:07:00,
2013-06-03 10:12:00,70.7,70.1,29.99,SE,135,0.0,0.0,98,0.00,CLR,,0.00,WeatherDisplay:10.37,2013-06-03 14:12:00,
2013-06-03 10:17:00,70.7,70.1,29.99,SE,135,0.0,0.0,98,0.00,CLR,,0.00,WeatherDisplay:10.37,2013-06-03 14:17:00,
2013-06-03 10:22:00,70.9,70.0,29.99,NW,315,1.1,0.0,97,0.00,CLR,,0.00,WeatherDisplay:10.37,2013-06-03 14:22:00,
2013-06-03 10:27:00,70.9,69.7,30.00,East,90,2.7,2.7,96,0.00,CLR,,0.00,WeatherDisplay:10.37,2013-06-03 14:27:00,
2013-06-03 10:32:00,71.1,69.6,30.00,East,90,2.3,2.3,95,0.00,CLR,,0.00,WeatherDisplay:10.37,2013-06-03 14:32:00,
2013-06-03 10:37:00,71.2,69.7,30.00,East,90,0.0,0.0,95,0.00,CLR,,0.00,WeatherDisplay:10.37,2013-06-03 14:37:00,
2013-06-03 10:42:00,71.8,69.6,30.00,NE,45,2.3,2.3,93,0.00,CLR,,0.00,WeatherDisplay:10.37,2013-06-03 14:42:00,
2013-06-03 10:47:00,72.1,70.0,30.00,North,0,4.6,0.0,93,0.00,CLR,,0.00,WeatherDisplay:10.37,2013-06-03 14:47:00,
2013-06-03 10:52:00,72.9,70.7,30.00,SW,225,2.3,2.3,93,0.00,CLR,,0.00,WeatherDisplay:10.37,2013-06-03 14:52:00,
2013-06-03 10:57:00,73.4,70.9,30.00,NW,315,2.3,0.0,92,0.00,CLR,,0.00,WeatherDisplay:10.37,2013-06-03 14:57:00,
2013-06-03 11:02:00,73.4,70.6,30.00,SE,135,5.8,0.0,91,0.00,CLR,,0.00,WeatherDisplay:10.37,2013-06-03 15:02:00,
2013-06-03 11:07:00,73.8,71.0,30.00,North,0,1.1,0.0,91,0.00,CLR,,0.00,WeatherDisplay:10.37,2013-06-03 15:07:00,
2013-06-03 11:12:00,74.3,71.5,30.00,SW,225,4.6,0.0,91,0.00,CLR,,0.00,WeatherDisplay:10.37,2013-06-03 15:12:00,
2013-06-03 11:17:00,74.3,70.8,30.00,South,180,2.3,2.3,89,0.00,CLR,,0.00,WeatherDisplay:10.37,2013-06-03 15:17:00,
2013-06-03 11:22:00,74.8,70.7,30.00,South,180,5.8,5.8,87,0.00,CLR,,0.00,WeatherDisplay:10.37,2013-06-03 15:22:00,
2013-06-03 11:27:00,75.9,71.4,30.00,SW,225,2.3,2.7,86,0.00,CLR,,0.00,WeatherDisplay:10.37,2013-06-03 15:27:00,
2013-06-03 11:32:00,76.8,72.0,29.99,West,270,4.6,0.0,85,0.00,CLR,,0.00,WeatherDisplay:10.37,2013-06-03 15:32:00,
2013-06-03 11:37:00,77.4,71.1,29.99,SW,225,5.8,5.8,81,0.00,CLR,,0.00,WeatherDisplay:10.37,2013-06-03 15:37:00,
2013-06-03 11:42:00,77.7,71.8,29.99,SE,135,4.6,4.6,82,0.00,CLR,,0.00,WeatherDisplay:10.37,2013-06-03 15:42:00,
2013-06-03 11:47:00,77.7,71.8,29.99,North,0,0.0,0.0,82,0.00,CLR,,0.00,WeatherDisplay:10.37,2013-06-03 15:47:00,
2013-06-03 11:52:00,78.4,72.1,29.99,SW,225,2.3,2.3,81,0.00,CLR,,0.00,WeatherDisplay:10.37,2013-06-03 15:52:00,
2013-06-03 11:57:00,79.0,72.6,29.99,West,270,4.6,4.6,81,0.00,CLR,,0.00,WeatherDisplay:10.37,2013-06-03 15:57:00,
2013-06-03 12:02:00,79.7,72.2,29.99,SW,225,2.3,2.3,78,0.00,CLR,,0.00,WeatherDisplay:10.37,2013-06-03 16:02:00,
2013-06-03 12:07:00,79.3,71.9,29.99,South,180,4.6,0.0,78,0.00,CLR,,0.00,WeatherDisplay:10.37,2013-06-03 16:07:00,
2013-06-03 12:12:00,79.2,71.3,29.99,ENE,68,2.3,2.3,77,0.00,CLR,,0.00,WeatherDisplay:10.37,2013-06-03 16:12:00,
2013-06-03 12:17:00,79.2,71.7,29.99,North,0,2.3,0.0,78,0.00,CLR,,0.00,WeatherDisplay:10.37,2013-06-03 16:17:00,
2013-06-03 12:22:00,79.7,72.6,29.99,South,180,4.6,0.0,79,0.00,CLR,,0.00,WeatherDisplay:10.37,2013-06-03 16:22:00,
2013-06-03 12:27:00,80.6,73.1,29.99,North,0,1.1,0.0,78,0.00,CLR,,0.00,WeatherDisplay:10.37,2013-06-03 16:27:00,
2013-06-03 12:32:00,81.0,71.5,29.99,North,0,5.8,5.8,73,0.00,CLR,,0.00,WeatherDisplay:10.37,2013-06-03 16:32:00,
2013-06-03 12:37:00,80.8,70.5,29.99,ESE,112,4.6,0.0,71,0.00,CLR,,0.00,WeatherDisplay:10.37,2013-06-03 16:37:00,
2013-06-03 12:42:00,81.3,71.0,29.98,NE,45,2.7,2.7,71,0.00,CLR,,0.00,WeatherDisplay:10.37,2013-06-03 16:42:00,
2013-06-03 12:47:00,81.5,71.2,29.98,NW,315,5.8,5.8,71,0.00,CLR,,0.00,WeatherDisplay:10.37,2013-06-03 16:47:00,
2013-06-03 12:52:00,80.2,70.4,29.98,East,90,4.6,0.0,72,0.00,CLR,,0.00,WeatherDisplay:10.37,2013-06-03 16:52:00,
2013-06-03 12:57:00,79.5,70.1,29.97,SE,135,4.6,0.0,73,0.00,CLR,,0.00,WeatherDisplay:10.37,2013-06-03 16:57:00,
2013-06-03 13:02:00,80.1,71.0,29.98,South,180,5.8,5.8,74,0.00,CLR,,0.00,WeatherDisplay:10.37,2013-06-03 17:02:00,
2013-06-03 13:07:00,80.4,70.6,29.97,East,90,8.1,8.1,72,0.00,CLR,,0.00,WeatherDisplay:10.37,2013-06-03 17:07:00,
2013-06-03 13:12:00,81.0,70.7,29.97,NE,45,6.9,0.0,71,0.00,CLR,,0.00,WeatherDisplay:10.37,2013-06-03 17:12:00,
2013-06-03 13:17:00,81.0,69.8,29.97,North,0,1.1,0.0,69,0.00,CLR,,0.00,WeatherDisplay:10.37,2013-06-03 17:17:00,
2013-06-03 13:22:00,81.3,71.4,29.96,SE,135,2.3,0.0,72,0.00,CLR,,0.00,WeatherDisplay:10.37,2013-06-03 17:22:00,
2013-06-03 13:27:00,82.0,72.1,29.96,North,0,2.3,2.3,72,0.00,CLR,,0.00,WeatherDisplay:10.37,2013-06-03 17:27:00,
2013-06-03 13:32:00,81.7,70.5,29.96,North,0,4.6,0.0,69,0.00,CLR,,0.00,WeatherDisplay:10.37,2013-06-03 17:32:00,
2013-06-03 13:37:00,80.4,70.6,29.96,North,0,5.8,5.8,72,0.00,CLR,,0.00,WeatherDisplay:10.37,2013-06-03 17:37:00,
2013-06-03 13:42:00,79.9,70.8,29.96,West,270,4.6,0.0,74,0.00,CLR,,0.00,WeatherDisplay:10.37,2013-06-03 17:42:00,
2013-06-03 13:47:00,79.5,70.5,29.96,North,0,4.6,4.6,74,0.00,CLR,,0.00,WeatherDisplay:10.37,2013-06-03 17:47:00,
2013-06-03 13:52:00,79.3,70.3,29.96,SW,225,4.6,4.6,74,0.00,CLR,,0.00,WeatherDisplay:10.37,2013-06-03 17:52:00,
2013-06-03 13:57:00,79.5,70.1,29.96,North,0,5.8,5.8,73,0.00,CLR,,0.00,WeatherDisplay:10.37,2013-06-03 17:57:00,
2013-06-03 14:02:00,79.5,69.7,29.96,East,90,8.1,8.1,72,0.00,CLR,,0.00,WeatherDisplay:10.37,2013-06-03 18:02:00,
2013-06-03 14:07:00,80.2,70.4,29.95,East,90,6.9,0.0,72,0.00,CLR,,0.00,WeatherDisplay:10.37,2013-06-03 18:07:00,
2013-06-03 14:12:00,80.1,70.2,29.95,East,90,2.3,0.0,72,0.00,CLR,,0.00,WeatherDisplay:10.37,2013-06-03 18:12:00,
2013-06-03 14:17:00,80.8,69.7,29.95,NE,45,4.6,4.6,69,0.00,CLR,,0.00,WeatherDisplay:10.37,2013-06-03 18:17:00,
2013-06-03 14:22:00,81.7,70.1,29.94,SW,225,6.9,6.9,68,0.00,CLR,,0.00,WeatherDisplay:10.37,2013-06-03 18:22:00,
2013-06-03 14:27:00,81.3,71.0,29.95,NE,45,2.3,2.3,71,0.00,CLR,,0.00,WeatherDisplay:10.37,2013-06-03 18:27:00,
2013-06-03 14:32:00,80.6,69.9,29.94,NE,45,8.1,8.1,70,0.00,CLR,,0.00,WeatherDisplay:10.37,2013-06-03 18:32:00,
2013-06-03 14:37:00,80.2,70.8,29.94,East,90,4.6,4.6,73,0.00,CLR,,0.00,WeatherDisplay:10.37,2013-06-03 18:37:00,
2013-06-03 14:42:00,80.6,70.7,29.94,NW,315,5.8,0.0,72,0.00,CLR,,0.00,WeatherDisplay:10.37,2013-06-03 18:42:00,
2013-06-03 14:47:00,81.1,70.8,29.94,East,90,5.8,5.8,71,0.00,CLR,,0.00,WeatherDisplay:10.37,2013-06-03 18:47:00,
2013-06-03 14:52:00,82.4,70.3,29.94,NW,315,5.8,5.8,67,0.00,CLR,,0.00,WeatherDisplay:10.37,2013-06-03 18:52:00,
2013-06-03 14:57:00,82.4,70.3,29.94,North,0,5.8,5.8,67,0.00,CLR,,0.00,WeatherDisplay:10.37,2013-06-03 18:57:00,
2013-06-03 15:02:00,81.9,69.4,29.94,North,0,2.3,2.3,66,0.00,CLR,,0.00,WeatherDisplay:10.37,2013-06-03 19:02:00,
2013-06-03 15:07:00,81.5,70.8,29.93,NE,45,4.6,4.6,70,0.00,CLR,,0.00,WeatherDisplay:10.37,2013-06-03 19:07:00,
2013-06-03 15:12:00,81.3,70.2,29.94,NE,45,5.8,5.8,69,0.00,CLR,,0.00,WeatherDisplay:10.37,2013-06-03 19:12:00,
2013-06-03 15:17:00,80.6,68.6,29.93,North,0,5.8,5.8,67,0.00,CLR,,0.00,WeatherDisplay:10.37,2013-06-03 19:17:00,
2013-06-03 15:22:00,81.0,69.8,29.93,East,90,5.8,5.8,69,0.00,CLR,,0.00,WeatherDisplay:10.37,2013-06-03 19:22:00,
2013-06-03 15:27:00,81.3,69.3,29.93,North,0,6.9,6.9,67,0.00,CLR,,0.00,WeatherDisplay:10.37,2013-06-03 19:27:00,
2013-06-03 15:32:00,81.1,69.1,29.93,NE,45,5.8,5.8,67,0.00,CLR,,0.00,WeatherDisplay:10.37,2013-06-03 19:32:00,
2013-06-03 15:37:00,81.5,69.0,29.93,SE,135,5.8,5.8,66,0.00,CLR,,0.00,WeatherDisplay:10.37,2013-06-03 19:37:00,
2013-06-03 15:42:00,82.6,69.6,29.93,NW,315,4.6,4.6,65,0.00,CLR,,0.00,WeatherDisplay:10.37,2013-06-03 19:42:00,
2013-06-03 15:47:00,83.3,70.3,29.93,NNW,338,4.6,4.6,65,0.00,CLR,,0.00,WeatherDisplay:10.37,2013-06-03 19:47:00,
2013-06-03 15:52:00,83.7,70.2,29.93,NNE,22,1.1,0.0,64,0.00,CLR,,0.00,WeatherDisplay:10.37,2013-06-03 19:52:00,
2013-06-03 15:57:00,82.4,69.4,29.93,North,0,2.3,0.0,65,0.00,CLR,,0.00,WeatherDisplay:10.37,2013-06-03 19:57:00,
2013-06-03 16:02:00,82.2,70.6,29.92,North,0,0.0,0.0,68,0.00,CLR,,0.00,WeatherDisplay:10.37,2013-06-03 20:02:00,
2013-06-03 16:07:00,82.0,69.1,29.92,NW,315,6.9,6.9,65,0.00,CLR,,0.00,WeatherDisplay:10.37,2013-06-03 20:07:00,
2013-06-03 16:12:00,81.3,68.4,29.92,NE,45,5.8,5.8,65,0.00,CLR,,0.00,WeatherDisplay:10.37,2013-06-03 20:12:00,
2013-06-03 16:17:00,81.0,68.5,29.92,North,0,4.6,4.6,66,0.00,CLR,,0.00,WeatherDisplay:10.37,2013-06-03 20:17:00,
2013-06-03 16:22:00,80.4,69.3,29.92,NNE,22,2.3,0.0,69,0.00,CLR,,0.00,WeatherDisplay:10.37,2013-06-03 20:22:00,
2013-06-03 16:27:00,79.7,69.0,29.91,North,0,2.3,2.3,70,0.00,CLR,,0.00,WeatherDisplay:10.37,2013-06-03 20:27:00,
2013-06-03 16:32:00,79.5,70.1,29.92,North,0,1.3,0.0,73,0.00,CLR,,0.00,WeatherDisplay:10.37,2013-06-03 20:32:00,
2013-06-03 16:37:00,79.7,69.5,29.91,East,90,8.1,8.1,71,0.00,CLR,,0.00,WeatherDisplay:10.37,2013-06-03 20:37:00,
2013-06-03 16:42:00,80.6,69.5,29.91,North,0,4.6,4.6,69,0.00,CLR,,0.00,WeatherDisplay:10.37,2013-06-03 20:42:00,
2013-06-03 16:47:00,81.0,69.4,29.91,North,0,6.9,6.9,68,0.00,CLR,,0.00,WeatherDisplay:10.37,2013-06-03 20:47:00,
2013-06-03 16:52:00,81.1,69.1,29.91,NE,45,4.6,4.6,67,0.00,CLR,,0.00,WeatherDisplay:10.37,2013-06-03 20:52:00,
2013-06-03 16:57:00,80.4,68.9,29.92,North,0,5.8,5.8,68,0.00,CLR,,0.00,WeatherDisplay:10.37,2013-06-03 20:57:00,
2013-06-03 17:02:00,80.4,69.7,29.91,East,90,4.6,4.6,70,0.00,CLR,,0.00,WeatherDisplay:10.37,2013-06-03 21:02:00,
2013-06-03 17:07:00,79.7,68.2,29.91,SE,135,4.6,4.6,68,0.00,CLR,,0.00,WeatherDisplay:10.37,2013-06-03 21:07:00,
2013-06-03 17:12:00,79.3,68.7,29.91,North,0,4.6,4.6,70,0.00,CLR,,0.00,WeatherDisplay:10.37,2013-06-03 21:12:00,
2013-06-03 17:17:00,79.7,67.8,29.91,East,90,8.1,8.1,67,0.00,CLR,,0.00,WeatherDisplay:10.37,2013-06-03 21:17:00,
2013-06-03 17:22:00,80.2,68.3,29.91,NE,45,5.8,5.8,67,0.00,CLR,,0.00,WeatherDisplay:10.37,2013-06-03 21:22:00,
2013-06-03 17:27:00,80.4,69.7,29.91,NE,45,4.6,4.6,70,0.00,CLR,,0.00,WeatherDisplay:10.37,2013-06-03 21:27:00,
2013-06-03 17:32:00,80.4,69.7,29.91,NW,315,5.8,5.8,70,0.00,CLR,,0.00,WeatherDisplay:10.37,2013-06-03 21:32:00,
2013-06-03 17:37:00,79.9,67.9,29.91,North,0,4.6,0.0,67,0.00,CLR,,0.00,WeatherDisplay:10.37,2013-06-03 21:37:00,
2013-06-03 17:42:00,79.7,67.8,29.91,NE,45,5.8,5.8,67,0.00,CLR,,0.00,WeatherDisplay:10.37,2013-06-03 21:42:00,
2013-06-03 17:47:00,79.3,67.4,29.92,North,0,4.6,4.6,67,0.00,CLR,,0.00,WeatherDisplay:10.37,2013-06-03 21:47:00,
2013-06-03 17:52:00,79.0,67.9,29.91,North,0,4.6,4.6,69,0.00,CLR,,0.00,WeatherDisplay:10.37,2013-06-03 21:52:00,
2013-06-03 17:57:00,78.8,67.8,29.91,NE,45,5.8,5.8,69,0.00,CLR,,0.00,WeatherDisplay:10.37,2013-06-03 21:57:00,
2013-06-03 18:02:00,78.6,68.4,29.91,North,0,5.8,5.8,71,0.00,CLR,,0.00,WeatherDisplay:10.37,2013-06-03 22:02:00,
2013-06-03 18:07:00,78.4,68.7,29.91,NE,45,4.6,4.6,72,0.00,CLR,,0.00,WeatherDisplay:10.37,2013-06-03 22:07:00,
2013-06-03 18:12:00,78.3,68.9,29.91,North,0,4.6,4.6,73,0.00,CLR,,0.00,WeatherDisplay:10.37,2013-06-03 22:12:00,
2013-06-03 18:17:00,78.1,68.3,29.91,East,90,4.6,4.6,72,0.00,CLR,,0.00,WeatherDisplay:10.37,2013-06-03 22:17:00,
2013-06-03 18:22:00,78.1,68.7,29.91,SE,135,4.6,4.6,73,0.00,CLR,,0.00,WeatherDisplay:10.37,2013-06-03 22:22:00,
2013-06-03 18:27:00,77.7,68.0,29.91,SE,135,4.6,4.6,72,0.00,CLR,,0.00,WeatherDisplay:10.37,2013-06-03 22:27:00,
2013-06-03 18:32:00,77.5,67.8,29.91,East,90,2.3,2.3,72,0.00,CLR,,0.00,WeatherDisplay:10.37,2013-06-03 22:32:00,
2013-06-03 18:37:00,77.4,68.0,29.91,North,0,2.3,0.0,73,0.00,CLR,,0.00,WeatherDisplay:10.37,2013-06-03 22:37:00,
2013-06-03 18:42:00,77.2,67.5,29.91,North,0,2.3,2.3,72,0.00,CLR,,0.00,WeatherDisplay:10.37,2013-06-03 22:42:00,
2013-06-03 18:47:00,77.0,67.3,29.91,NW,315,4.6,4.6,72,0.00,CLR,,0.00,WeatherDisplay:10.37,2013-06-03 22:47:00,
2013-06-03 18:52:00,77.0,67.7,29.91,North,0,4.6,4.6,73,0.00,CLR,,0.00,WeatherDisplay:10.37,2013-06-03 22:52:00,
2013-06-03 18:57:00,76.6,68.1,29.91,North,0,1.1,0.0,75,0.00,CLR,,0.00,WeatherDisplay:10.37,2013-06-03 22:57:00,
2013-06-03 19:02:00,76.5,67.9,29.91,North,0,0.0,0.0,75,0.00,CLR,,0.00,WeatherDisplay:10.37,2013-06-03 23:02:00,
2013-06-03 19:07:00,76.3,67.4,29.91,North,0,4.6,4.6,74,0.00,CLR,,0.00,WeatherDisplay:10.37,2013-06-03 23:07:00,
2013-06-03 19:12:00,76.5,67.9,29.91,NE,45,2.3,0.0,75,0.00,CLR,,0.00,WeatherDisplay:10.37,2013-06-03 23:12:00,
2013-06-03 19:17:00,76.1,67.6,29.91,North,0,2.3,0.0,75,0.00,CLR,,0.00,WeatherDisplay:10.37,2013-06-03 23:17:00,
2013-06-03 19:22:00,75.9,67.4,29.92,North,0,5.8,5.8,75,0.00,CLR,,0.00,WeatherDisplay:10.37,2013-06-03 23:22:00,
2013-06-03 19:27:00,75.7,67.6,29.92,North,0,0.0,0.0,76,0.00,CLR,,0.00,WeatherDisplay:10.37,2013-06-03 23:27:00,
2013-06-03 19:32:00,75.6,67.5,29.92,North,0,0.0,0.0,76,0.00,CLR,,0.00,WeatherDisplay:10.37,2013-06-03 23:32:00,
2013-06-03 19:37:00,75.4,67.3,29.92,North,0,0.0,0.0,76,0.00,CLR,,0.00,WeatherDisplay:10.37,2013-06-03 23:37:00,
2013-06-03 19:42:00,75.2,67.5,29.92,NW,315,0.0,0.0,77,0.00,CLR,,0.00,WeatherDisplay:10.37,2013-06-03 23:42:00,
2013-06-03 19:47:00,75.0,68.1,29.92,North,0,2.3,0.0,79,0.00,CLR,,0.00,WeatherDisplay:10.37,2013-06-03 23:47:00,
2013-06-03 19:52:00,74.7,68.1,29.92,North,0,0.0,0.0,80,0.00,CLR,,0.00,WeatherDisplay:10.37,2013-06-03 23:52:00,
2013-06-03 19:57:00,74.3,67.7,29.93,North,0,0.0,0.0,80,0.00,CLR,,0.00,WeatherDisplay:10.37,2013-06-03 23:57:00,
2013-06-03 20:02:00,74.1,67.6,29.93,North,0,0.0,0.0,80,0.00,CLR,,0.00,WeatherDisplay:10.37,2013-06-04 00:02:00,
2013-06-03 20:07:00,73.8,67.2,29.93,NW,315,0.0,0.0,80,0.00,CLR,,0.00,WeatherDisplay:10.37,2013-06-04 00:07:00,
2013-06-03 20:12:00,73.4,67.2,29.93,NW,315,0.0,0.0,81,0.00,CLR,,0.00,WeatherDisplay:10.37,2013-06-04 00:12:00,
2013-06-03 20:17:00,73.0,66.9,29.93,NW,315,0.0,0.0,81,0.00,CLR,,0.00,WeatherDisplay:10.37,2013-06-04 00:17:00,
2013-06-03 20:22:00,72.7,66.5,29.93,NW,315,0.0,0.0,81,0.00,CLR,,0.00,WeatherDisplay:10.37,2013-06-04 00:22:00,
2013-06-03 20:27:00,72.3,66.5,29.93,NW,315,0.0,0.0,82,0.00,CLR,,0.00,WeatherDisplay:10.37,2013-06-04 00:27:00,
2013-06-03 20:32:00,72.1,66.3,29.93,NW,315,0.0,0.0,82,0.00,CLR,,0.00,WeatherDisplay:10.37,2013-06-04 00:32:00,
2013-06-03 20:37:00,71.8,66.7,29.93,NW,315,0.0,0.0,84,0.00,CLR,,0.00,WeatherDisplay:10.37,2013-06-04 00:37:00,
2013-06-03 20:42:00,71.4,66.7,29.94,North,0,0.0,0.0,85,0.00,CLR,,0.00,WeatherDisplay:10.37,2013-06-04 00:42:00,
2013-06-03 20:47:00,70.9,66.1,29.94,North,0,0.0,0.0,85,0.00,CLR,,0.00,WeatherDisplay:10.37,2013-06-04 00:47:00,
2013-06-03 20:52:00,70.7,66.3,29.93,North,0,0.0,0.0,86,0.00,CLR,,0.00,WeatherDisplay:10.37,2013-06-04 00:52:00,
2013-06-03 20:57:00,70.3,65.6,29.94,NW,315,1.1,0.0,85,0.00,CLR,,0.00,WeatherDisplay:10.37,2013-06-04 00:57:00,
2013-06-03 21:02:00,70.0,65.3,29.94,NW,315,0.0,0.0,85,0.00,CLR,,0.00,WeatherDisplay:10.37,2013-06-04 01:02:00,
2013-06-03 21:07:00,69.8,65.4,29.94,NW,315,0.0,0.0,86,0.00,CLR,,0.00,WeatherDisplay:10.37,2013-06-04 01:07:00,
2013-06-03 21:12:00,69.4,65.7,29.95,NW,315,0.0,0.0,88,0.00,CLR,,0.00,WeatherDisplay:10.37,2013-06-04 01:12:00,
2013-06-03 21:17:00,69.3,65.9,29.95,NW,315,0.0,0.0,89,0.00,CLR,,0.00,WeatherDisplay:10.37,2013-06-04 01:17:00,
2013-06-03 21:22:00,69.1,65.7,29.95,NW,315,0.0,0.0,89,0.00,CLR,,0.00,WeatherDisplay:10.37,2013-06-04 01:22:00,
2013-06-03 21:27:00,69.1,66.0,29.95,NW,315,0.0,0.0,90,0.00,CLR,,0.00,WeatherDisplay:10.37,2013-06-04 01:27:00,
2013-06-03 21:32:00,68.9,66.2,29.95,North,0,0.0,0.0,91,0.00,CLR,,0.00,WeatherDisplay:10.37,2013-06-04 01:32:00,
2013-06-03 21:37:00,68.9,66.2,29.96,North,0,0.0,0.0,91,0.00,CLR,,0.00,WeatherDisplay:10.37,2013-06-04 01:37:00,
2013-06-03 21:42:00,68.7,66.3,29.96,North,0,0.0,0.0,92,0.00,CLR,,0.00,WeatherDisplay:10.37,2013-06-04 01:42:00,
2013-06-03 21:47:00,68.5,66.1,29.96,North,0,0.0,0.0,92,0.00,CLR,,0.00,WeatherDisplay:10.37,2013-06-04 01:47:00,
2013-06-03 21:52:00,68.4,65.9,29.96,North,0,0.0,0.0,92,0.00,CLR,,0.00,WeatherDisplay:10.37,2013-06-04 01:52:00,
2013-06-03 21:57:00,68.2,65.8,29.97,NW,315,0.0,0.0,92,0.00,CLR,,0.00,WeatherDisplay:10.37,2013-06-04 01:57:00,
2013-06-03 22:02:00,68.2,65.8,29.97,North,0,0.0,0.0,92,0.00,CLR,,0.00,WeatherDisplay:10.37,2013-06-04 02:02:00,
2013-06-03 22:07:00,68.0,65.6,29.98,North,0,0.0,0.0,92,0.00,CLR,,0.00,WeatherDisplay:10.37,2013-06-04 02:07:00,
2013-06-03 22:12:00,68.0,65.6,29.98,North,0,0.0,0.0,92,0.00,CLR,,0.00,WeatherDisplay:10.37,2013-06-04 02:12:00,
2013-06-03 22:17:00,68.0,65.6,29.98,West,270,0.0,0.0,92,0.00,CLR,,0.00,WeatherDisplay:10.37,2013-06-04 02:17:00,
2013-06-03 22:22:00,67.8,65.7,29.98,West,270,0.0,0.0,93,0.00,CLR,,0.00,WeatherDisplay:10.37,2013-06-04 02:22:00,
2013-06-03 22:27:00,67.8,65.7,29.98,North,0,0.0,0.0,93,0.00,CLR,,0.00,WeatherDisplay:10.37,2013-06-04 02:27:00,
2013-06-03 22:32:00,67.6,65.5,29.99,North,0,0.0,0.0,93,0.00,CLR,,0.00,WeatherDisplay:10.37,2013-06-04 02:32:00,
2013-06-03 22:37:00,67.6,65.2,29.99,North,0,0.0,0.0,92,0.00,CLR,,0.00,WeatherDisplay:10.37,2013-06-04 02:37:00,
2013-06-03 22:42:00,67.6,65.2,30.00,NW,315,0.0,0.0,92,0.00,CLR,,0.00,WeatherDisplay:10.37,2013-06-04 02:42:00,
2013-06-03 22:47:00,67.6,64.9,30.00,NW,315,0.0,0.0,91,0.00,CLR,,0.00,WeatherDisplay:10.37,2013-06-04 02:47:00,
2013-06-03 22:52:00,67.6,64.9,30.00,NW,315,0.0,0.0,91,0.00,CLR,,0.00,WeatherDisplay:10.37,2013-06-04 02:52:00,
2013-06-03 22:57:00,67.5,64.4,30.00,NW,315,0.0,0.0,90,0.00,CLR,,0.00,WeatherDisplay:10.37,2013-06-04 02:57:00,
2013-06-03 23:02:00,67.3,63.9,30.00,NW,315,0.0,0.0,89,0.00,CLR,,0.00,WeatherDisplay:10.37,2013-06-04 03:02:00,
2013-06-03 23:07:00,67.1,63.7,30.00,NW,315,0.0,0.0,89,0.00,CLR,,0.00,WeatherDisplay:10.37,2013-06-04 03:07:00,
2013-06-03 23:12:00,66.9,64.2,30.00,NW,315,0.0,0.0,91,0.00,CLR,,0.00,WeatherDisplay:10.37,2013-06-04 03:12:00,
2013-06-03 23:17:00,66.7,64.3,30.00,NW,315,0.0,0.0,92,0.00,CLR,,0.00,WeatherDisplay:10.37,2013-06-04 03:17:00,
2013-06-03 23:22:00,66.4,64.0,30.00,North,0,0.0,0.0,92,0.00,CLR,,0.00,WeatherDisplay:10.37,2013-06-04 03:22:00,
2013-06-03 23:27:00,66.2,63.8,30.00,North,0,0.0,0.0,92,0.00,CLR,,0.00,WeatherDisplay:10.37,2013-06-04 03:27:00,
2013-06-03 23:32:00,66.0,63.9,30.00,North,0,0.0,0.0,93,0.00,CLR,,0.00,WeatherDisplay:10.37,2013-06-04 03:32:00,
2013-06-03 23:37:00,66.0,64.2,30.00,North,0,0.0,0.0,94,0.00,CLR,,0.00,WeatherDisplay:10.37,2013-06-04 03:37:00,
2013-06-03 23:42:00,65.8,64.1,30.00,North,0,0.0,0.0,94,0.00,CLR,,0.00,WeatherDisplay:10.37,2013-06-04 03:42:00,
2013-06-03 23:47:00,65.7,63.9,30.01,North,0,0.0,0.0,94,0.00,CLR,,0.00,WeatherDisplay:10.37,2013-06-04 03:47:00,
2013-06-03 23:52:00,65.7,63.9,30.01,North,0,0.0,0.0,94,0.00,CLR,,0.00,WeatherDisplay:10.37,2013-06-04 03:52:00,
2013-06-03 23:57:00,65.1,63.7,30.01,North,0,0.0,0.0,95,0.00,CLR,,0.00,WeatherDisplay:10.37,2013-06-04 03:57:00,